Hourly Data Report for April 12, 1979

WINDSOR A
ONTARIO

42°16'32.000" N
82°57'20.000" W
189.60 m
6139525
71538
YQG

Download Data

Hourly Data (April 1979)
Hourly Data Report for April 12, 1979
TIME
LST
Temp Definition
°C
Dew Point Definition
°C
Rel Hum Definition
%
Precip. Amount Definition
mm

Wind Dir Definition
10's deg

Wind Spd Definition
km/h
Visibility Definition
km
Stn Press Definition
kPa
Hmdx Definition


Wind Chill Definition


Weather Definition


00:00 4.3 1.4 81   7 20 24.1 99.50     Cloudy
01:00 4.8 1.5 79   8 22 19.3 99.40     Cloudy
02:00 5.2 2.2 81   8 22 19.3 99.30     Cloudy
03:00 6.2 2.6 78   10 24 11.3 99.36     Rain Showers
04:00 5.0 3.0 87   11 26 12.9 99.33     Rain Showers
05:00 5.1 3.0 86   11 33 12.9 99.23     Rain Showers
06:00 5.3 3.1 86   11 31 12.9 99.16     Cloudy
07:00 5.2 3.0 86   11 31 14.5 99.16     Cloudy
08:00 5.6 3.9 89   11 22 12.9 99.23     Cloudy
09:00 6.4 4.5 88   10 22 12.9 99.26     Rain Showers
10:00 8.6 6.5 87   11 24 11.3 99.26     Cloudy
11:00 9.6 7.4 86   10 17 9.7 99.30     Haze
12:00 9.7 7.6 87   10 19 9.7 99.23     Haze
13:00 10.2 7.8 85   10 26 9.7 99.17     Haze
14:00 11.3 8.6 84   10 26 9.7 99.13     Haze
15:00 12.5 9.8 83   12 22 11.3 99.03     Mostly Cloudy
16:00 13.0 10.1 83   11 26 12.9 99.00     Mainly Clear
17:00 11.4 9.0 85   11 20 12.9 99.03     Cloudy
18:00 9.8 7.2 84   11 31 14.5 99.03     Mostly Cloudy
19:00 8.5 5.8 83   12 28 16.1 98.96     Mostly Cloudy
20:00 7.1 5.0 86   12 20 16.1 99.00     Mostly Cloudy
21:00 6.8 4.7 87   12 28 16.1 98.93     Mostly Cloudy
22:00 6.6 4.7 88   12 24 16.1 98.90     Mostly Cloudy
23:00 6.5 4.7 88   11 11 14.5 98.86     Mostly Cloudy

Notes on Data Quality.

Legend

  • E = Estimated
  • M = Missing
  • NA = Not Available*
  • [empty] = Indicates an unobserved value
Date modified: